Radiation Dose at Monitoring Post of Fukushima Daini Nuclear Power Station
Date,Time,MP-1(microSv/h),MP-2(microSv/h),MP-3(microSv/h),MP-4(microSv/h),MP-5(microSv/h),MP-6(microSv/h),MP-7(microSv/h),Wind Direction,Wind Velocity(m/s),Rain
2016/05/24,00:00,0.445,0.258,0.469,0.420,0.391,0.211,0.182,east-northeast,1.4,No
2016/05/24,00:10,0.449,0.260,0.473,0.413,0.396,0.209,0.182,northeast,0.8,No
2016/05/24,00:20,0.446,0.259,0.469,0.418,0.392,0.211,0.183,-,CALM,No
2016/05/24,00:30,0.448,0.261,0.473,0.414,0.395,0.209,0.182,northeast,0.6,No
2016/05/24,00:40,0.446,0.261,0.469,0.417,0.391,0.209,0.182,northeast,1.0,No
2016/05/24,00:50,0.449,0.260,0.474,0.414,0.394,0.210,0.183,north-northeast,2.9,No
2016/05/24,01:00,0.446,0.260,0.470,0.419,0.392,0.211,0.183,north-northeast,4.3,No
2016/05/24,01:10,0.449,0.259,0.473,0.414,0.395,0.211,0.184,north-northeast,4.1,No
2016/05/24,01:20,0.445,0.261,0.470,0.420,0.392,0.210,0.183,north,3.8,No
2016/05/24,01:30,0.452,0.260,0.472,0.415,0.393,0.210,0.183,north-northwest,4.6,No
2016/05/24,01:40,0.447,0.261,0.471,0.418,0.393,0.210,0.183,north,5.6,No
2016/05/24,01:50,0.449,0.260,0.474,0.415,0.394,0.209,0.183,north,6.1,No
2016/05/24,02:00,0.446,0.260,0.470,0.418,0.392,0.209,0.183,north-northwest,5.7,No
2016/05/24,02:10,0.450,0.260,0.474,0.415,0.393,0.209,0.183,north,5.9,No
2016/05/24,02:20,0.445,0.260,0.472,0.417,0.393,0.210,0.183,north,3.9,No
2016/05/24,02:30,0.451,0.260,0.472,0.415,0.393,0.209,0.183,north,3.8,No
2016/05/24,02:40,0.445,0.259,0.471,0.417,0.393,0.210,0.183,north,3.6,No
2016/05/24,02:50,0.449,0.260,0.473,0.414,0.395,0.210,0.183,north,3.9,No
2016/05/24,03:00,0.446,0.259,0.470,0.418,0.390,0.209,0.183,north,3.2,No
2016/05/24,03:10,0.450,0.260,0.474,0.415,0.395,0.210,0.184,north,2.6,No
2016/05/24,03:20,0.448,0.259,0.470,0.416,0.390,0.209,0.183,north-northwest,2.9,No
2016/05/24,03:30,0.450,0.260,0.473,0.415,0.395,0.211,0.183,north,3.5,No
2016/05/24,03:40,0.446,0.260,0.470,0.416,0.390,0.209,0.183,north,2.5,No
2016/05/24,03:50,0.451,0.259,0.472,0.416,0.393,0.210,0.182,north,3.2,No
2016/05/24,04:00,0.449,0.260,0.470,0.415,0.389,0.209,0.183,north,2.8,No
2016/05/24,04:10,0.448,0.259,0.474,0.416,0.395,0.209,0.182,north,2.9,No
2016/05/24,04:20,0.447,0.260,0.469,0.415,0.390,0.212,0.182,north,2.4,No
2016/05/24,04:30,0.448,0.259,0.474,0.417,0.394,0.208,0.183,north,1.8,No
2016/05/24,04:40,0.449,0.260,0.468,0.415,0.390,0.210,0.184,north,2.7,No
2016/05/24,04:50,0.447,0.258,0.472,0.418,0.395,0.209,0.182,north,1.4,No
2016/05/24,05:00,0.449,0.261,0.469,0.416,0.390,0.209,0.183,north,2.2,No
2016/05/24,05:10,0.447,0.259,0.472,0.416,0.393,0.209,0.182,north,1.9,No
2016/05/24,05:20,0.447,0.259,0.470,0.414,0.390,0.209,0.182,north-northeast,3.1,No
2016/05/24,05:30,0.446,0.259,0.472,0.416,0.392,0.208,0.181,north-northeast,2.1,No
2016/05/24,05:40,0.449,0.259,0.469,0.415,0.391,0.208,0.181,north-northeast,1.9,No
2016/05/24,05:50,0.447,0.258,0.473,0.416,0.388,0.210,0.182,north-northeast,3.4,No
2016/05/24,06:00,0.449,0.259,0.470,0.415,0.393,0.210,0.182,north-northeast,3.5,No
2016/05/24,06:10,0.446,0.258,0.472,0.417,0.390,0.210,0.181,north-northeast,2.8,No
2016/05/24,06:20,0.447,0.260,0.470,0.415,0.390,0.209,0.183,north-northeast,2.2,No
2016/05/24,06:30,0.448,0.258,0.472,0.417,0.392,0.209,0.182,north-northeast,2.5,No
2016/05/24,06:40,0.444,0.257,0.469,0.412,0.388,0.209,0.181,north-northeast,1.9,No
2016/05/24,06:50,0.448,0.257,0.470,0.417,0.393,0.209,0.182,north,1.7,No
2016/05/24,07:00,0.445,0.262,0.470,0.413,0.393,0.208,0.181,north,1.9,No
2016/05/24,07:10,0.445,0.258,0.468,0.410,0.389,0.209,0.180,northeast,1.5,No
2016/05/24,07:20,0.449,0.258,0.464,0.416,0.393,0.210,0.181,north-northeast,1.4,No
2016/05/24,07:30,0.444,0.258,0.463,0.413,0.394,0.210,0.182,north-northeast,1.4,No
2016/05/24,07:40,0.449,0.261,0.470,0.409,0.390,0.209,0.184,north,0.7,No
2016/05/24,07:50,0.448,0.260,0.472,0.409,0.387,0.210,0.183,north-northeast,1.6,No
2016/05/24,08:00,0.444,0.259,0.471,0.411,0.394,0.210,0.182,northeast,1.8,No
2016/05/24,08:10,0.447,0.258,0.464,0.415,0.393,0.207,0.182,northeast,1.9,No
2016/05/24,08:20,0.449,0.257,0.468,0.414,0.390,0.210,0.181,-,CALM,No
2016/05/24,08:30,0.446,0.261,0.476,0.412,0.388,0.209,0.183,-,CALM,No
2016/05/24,08:40,0.446,0.261,0.471,0.411,0.387,0.208,0.183,east-southeast,1.4,No
2016/05/24,08:50,0.450,0.260,0.467,0.411,0.392,0.210,0.183,east,1.4,No
2016/05/24,09:00,0.446,0.258,0.475,0.409,0.395,0.209,0.182,east,1.6,No
2016/05/24,09:10,0.443,0.256,0.472,0.411,0.393,0.210,0.181,east-northeast,1.8,No
2016/05/24,09:20,0.447,0.258,0.468,0.411,0.389,0.210,0.181,east-northeast,2.8,No
2016/05/24,09:30,0.450,0.261,0.470,0.411,0.387,0.208,0.181,east-northeast,2.4,No
2016/05/24,09:40,0.446,0.259,0.473,0.411,0.388,0.209,-,east-northeast,2.4,No
2016/05/24,09:50,0.444,0.258,0.470,0.412,0.388,0.208,-,northeast,2.6,No
2016/05/24,10:00,0.441,0.256,0.465,0.414,0.390,0.209,-,east-northeast,1.6,No
2016/05/24,10:10,0.448,0.258,0.473,0.413,0.394,0.209,-,east-northeast,1.8,No
2016/05/24,10:20,0.451,0.258,0.472,0.413,0.393,0.210,-,-,CALM,No
2016/05/24,10:30,0.448,0.260,0.471,0.413,0.391,0.210,-,-,CALM,No
2016/05/24,10:40,0.445,0.260,0.468,0.413,0.389,0.209,-,-,CALM,No
2016/05/24,10:50,0.443,0.258,0.467,0.415,0.390,0.210,-,east-northeast,1.1,No
2016/05/24,11:00,0.441,0.256,0.468,0.415,0.389,0.209,-,-,CALM,No
2016/05/24,11:10,0.449,0.256,0.467,0.415,0.388,0.210,-,east,0.6,No
2016/05/24,11:20,0.451,0.261,0.466,0.415,0.390,0.210,-,southeast,1.2,No
2016/05/24,11:30,0.448,0.260,0.466,0.418,0.395,0.210,-,east-northeast,0.7,No
2016/05/24,11:40,0.445,0.259,0.466,0.416,0.395,0.210,-,-,CALM,No
2016/05/24,11:50,0.443,0.258,0.468,0.416,0.392,0.210,-,southeast,1.2,No
2016/05/24,12:00,0.443,0.258,0.466,0.414,0.391,0.210,-,east-southeast,1.3,No
2016/05/24,12:10,0.451,0.257,0.469,0.413,0.390,0.210,-,east,1.4,No
2016/05/24,12:20,0.448,0.260,0.469,0.411,0.391,0.210,-,east-southeast,1.7,No
2016/05/24,12:30,0.446,0.261,0.473,0.412,0.389,0.210,-,east-northeast,2.8,No
2016/05/24,12:40,0.446,0.260,0.475,0.418,0.390,0.210,-,east-northeast,3.0,No
2016/05/24,12:50,0.451,0.259,0.472,0.418,0.390,0.210,-,east-northeast,2.6,No
2016/05/24,13:00,0.450,0.260,0.471,0.418,0.397,0.210,-,east-northeast,2.4,No
2016/05/24,13:10,0.446,0.262,0.468,0.414,0.394,0.209,-,northeast,1.5,No
2016/05/24,13:20,0.449,0.260,0.474,0.415,0.392,0.209,-,east-northeast,1.3,No
2016/05/24,13:30,0.451,0.258,0.476,0.419,0.391,0.209,-,east,1.0,No
2016/05/24,13:40,0.448,0.262,0.472,0.416,0.390,0.211,-,east,1.4,No
2016/05/24,13:50,0.445,0.261,0.469,0.417,0.388,0.211,-,east-southeast,0.6,No
2016/05/24,14:00,0.452,0.259,0.467,0.413,0.389,0.210,-,east-southeast,1.2,No
2016/05/24,14:10,0.449,0.258,0.469,0.412,0.390,0.209,-,east,1.5,No
2016/05/24,14:20,0.444,0.262,0.477,0.418,0.398,0.210,-,east-northeast,1.8,No
2016/05/24,14:30,0.450,0.261,0.474,0.418,0.395,0.210,-,east-northeast,1.4,No
2016/05/24,14:40,0.450,0.259,0.469,0.413,0.392,0.209,-,southeast,0.5,No
2016/05/24,14:50,0.446,0.261,0.475,0.419,0.396,0.210,-,-,CALM,No
2016/05/24,15:00,0.452,0.261,0.474,0.419,0.397,0.209,0.183,-,CALM,No
2016/05/24,15:10,0.451,0.259,0.470,0.416,0.393,0.208,0.183,east-northeast,0.6,No
2016/05/24,15:20,0.444,0.261,0.473,0.417,0.391,0.210,0.183,-,CALM,No
2016/05/24,15:30,0.452,0.259,0.474,0.421,0.396,0.210,0.183,northeast,0.9,No
2016/05/24,15:40,0.449,0.261,0.470,0.415,0.392,0.210,0.184,northeast,0.8,No
2016/05/24,15:50,0.448,0.262,0.474,0.416,0.389,0.210,0.182,north-northeast,1.0,No
2016/05/24,16:00,0.452,0.258,0.474,0.419,0.395,0.209,0.183,northeast,0.6,No
2016/05/24,16:10,0.448,0.261,0.469,0.414,0.392,0.209,0.184,northeast,1.0,No
2016/05/24,16:20,0.447,0.261,0.474,0.415,0.389,0.210,0.182,northeast,0.7,No
2016/05/24,16:30,0.451,0.258,0.475,0.420,0.390,0.210,0.184,southeast,0.6,No
2016/05/24,16:40,0.445,0.261,0.470,0.413,0.397,0.209,0.183,south-southeast,0.8,No
2016/05/24,16:50,0.453,0.258,0.474,0.417,0.392,0.209,0.182,-,CALM,No
2016/05/24,17:00,0.450,0.262,0.474,0.420,0.392,0.209,0.183,south-southwest,0.7,No
2016/05/24,17:10,0.448,0.262,0.470,0.416,0.395,0.210,0.182,south-southwest,1.3,No
2016/05/24,17:20,0.453,0.258,0.476,0.418,0.392,0.210,0.184,south-southwest,1.8,No
2016/05/24,17:30,0.447,0.261,0.474,0.418,0.393,0.209,0.183,-,CALM,No
2016/05/24,17:40,0.450,0.259,0.472,0.416,0.395,0.210,0.184,south,0.9,No
2016/05/24,17:50,0.449,0.261,0.475,0.421,0.390,0.208,0.183,south-southwest,1.0,No
2016/05/24,18:00,0.447,0.260,0.469,0.416,0.397,0.210,0.183,south,1.4,No
2016/05/24,18:10,0.450,0.262,0.476,0.418,0.393,0.209,0.185,south,2.8,No
2016/05/24,18:20,0.445,0.261,0.473,0.420,0.391,0.209,0.183,south,5.4,No
2016/05/24,18:30,0.451,0.260,0.470,0.416,0.395,0.210,0.184,south,5.7,No
2016/05/24,18:40,0.449,0.260,0.476,0.420,0.391,0.209,0.183,south,5.3,No
2016/05/24,18:50,0.446,0.260,0.471,0.416,0.395,0.210,0.184,south,4.3,No
2016/05/24,19:00,0.451,0.261,0.476,0.418,0.391,0.209,0.182,south,4.5,No
2016/05/24,19:10,0.445,0.259,0.471,0.418,0.394,0.211,0.183,south,4.5,No
2016/05/24,19:20,0.451,0.260,0.475,0.416,0.393,0.209,0.182,south,4.6,No
2016/05/24,19:30,0.447,0.258,0.474,0.420,0.392,0.210,0.184,south-southwest,5.0,No
2016/05/24,19:40,0.451,0.260,0.473,0.415,0.393,0.209,0.182,south-southwest,4.8,No
2016/05/24,19:50,0.447,0.260,0.476,0.422,0.392,0.210,0.184,south-southwest,5.0,No
2016/05/24,20:00,0.450,0.260,0.471,0.416,0.394,0.209,0.183,south-southwest,4.1,No
2016/05/24,20:10,0.448,0.258,0.477,0.420,0.390,0.211,0.184,south-southwest,4.7,No
2016/05/24,20:20,0.448,0.261,0.471,0.417,0.394,0.211,0.182,south-southwest,5.2,No
2016/05/24,20:30,0.450,0.258,0.475,0.418,0.390,0.210,0.184,south-southwest,3.7,No
2016/05/24,20:40,0.448,0.261,0.471,0.418,0.395,0.210,0.183,south-southwest,6.0,No
2016/05/24,20:50,0.451,0.259,0.472,0.417,0.390,0.210,0.183,south-southwest,6.8,No
2016/05/24,21:00,0.445,0.261,0.475,0.420,0.395,0.210,0.183,south-southwest,5.8,No
2016/05/24,21:10,0.451,0.259,0.471,0.416,0.391,0.209,0.183,south-southwest,7.3,No
2016/05/24,21:20,0.449,0.261,0.475,0.421,0.392,0.211,0.183,south-southwest,8.4,No
2016/05/24,21:30,0.449,0.261,0.471,0.415,0.393,0.210,0.183,south-southwest,6.5,No
2016/05/24,21:40,0.450,0.262,0.476,0.420,0.391,0.210,0.182,south-southwest,6.7,No
2016/05/24,21:50,0.447,0.261,0.471,0.415,0.394,0.210,0.183,south-southwest,6.0,No
2016/05/24,22:00,0.451,0.260,0.476,0.419,0.389,0.210,0.183,south-southwest,3.6,No
2016/05/24,22:10,0.448,0.260,0.474,0.416,0.394,0.210,0.184,south-southwest,4.1,No
2016/05/24,22:20,0.451,0.260,0.474,0.420,0.390,0.211,0.182,south-southwest,5.0,No
2016/05/24,22:30,0.446,0.260,0.473,0.418,0.395,0.209,0.184,south,7.0,No
2016/05/24,22:40,0.451,0.261,0.474,0.418,0.392,0.211,0.183,south-southwest,7.7,No
2016/05/24,22:50,0.450,0.259,0.475,0.416,0.394,0.209,0.183,south-southwest,8.3,No
2016/05/24,23:00,0.450,0.260,0.472,0.417,0.393,0.210,0.183,south-southwest,8.7,No
2016/05/24,23:10,0.448,0.262,0.475,0.418,0.392,0.209,0.184,south-southwest,7.3,No
2016/05/24,23:20,0.449,0.261,0.470,0.416,0.394,0.209,0.183,south,7.7,No
2016/05/24,23:30,0.451,0.260,0.474,0.418,0.392,0.209,0.182,south,9.5,No
2016/05/24,23:40,0.446,0.260,0.470,0.414,0.395,0.210,0.182,south,10.0,No
2016/05/24,23:50,0.449,0.260,0.475,0.418,0.391,0.210,0.182,south,10.1,No
